{"data":{"norad_id":53712,"intl_designator":"2022-107N","name":"STARLINK-4683","alt_names":[],"object_type":"PAYLOAD","status":"ACTIVE","operator":null,"country":"US","launch_date":"2022-09-05","launch_site_code":"AFETR","launch_vehicle":null,"mission":null,"orbit_class":"UNKNOWN","rcs_meters":null,"size_class":null,"mass_kg":null,"dimensions":null,"purposes":["comms"],"wikipedia_slug":null,"has_3d_model":false,"image_url":null,"decayed_at":null,"tle_current":{"epoch":"2026-09-20T22:17:09.945312Z","epoch_age_seconds":44678,"freshness":"FRESH","line1":"1 53712U 22107N   26263.92858733  .00000578  00000+0  28226-4 0  9997","line2":"2 53712  53.1574  81.8268 0000780 114.2670 245.8414 15.34392574224115","mean_motion":15.34392574,"eccentricity":7.8e-5,"inclination_deg":53.1574,"raan_deg":81.8268,"arg_perigee_deg":114.267,"mean_anomaly_deg":245.8414,"bstar":2.8226e-5,"rev_number":22411,"period_min":93.848212276345,"perigee_km":462.19172467275,"apogee_km":463.25889919341,"semimajor_km":6840.8623119331,"source":"CELESTRAK","updated_at":"2026-09-21T09:00:32.984036Z"}}}